カタログに戻る

TOMORROW-S2

運用中気象SSO
NORAD 60485·PAYLOAD·🇺🇸 United States

打ち上げ Aug 16, 2024 から Vandenberg Space Force Base

Loading…

次のパス (今後24時間)

TLE

最新Source: Space-Track

元期: Sep 14, 2026, 04:19 UTC

1 60485U 24149T   26257.18025211  .00005946  00000-0  18374-3 0  9995
2 60485  97.3766 337.9930 0001765 352.6277   7.4939 15.33904236115722

AllMySatでTOMORROW-S2をリアルタイム追跡

Download on the App Store